[Iaude] MPEC S98: 2019 SU3 [a=1.09,e=0.09,i=1.2,H=26.8]

mpec at marsden.cfa.harvard.edu mpec at marsden.cfa.harvard.edu
Thu Sep 26 09:48:57 EDT 2019


M.P.E.C. 2019-S98                            Issued 2019 September 26, 13:47 UT

     The Minor Planet Electronic Circulars contain information on unusual
         minor planets and routine data on comets.  They are published
    on behalf of Division F of the International Astronomical Union by the
          Minor Planet Center, Smithsonian Astrophysical Observatory,
                          Cambridge, MA 02138, U.S.A.

             Prepared using the Tamkin Foundation Computer Network

                              MPC at CFA.HARVARD.EDU
            URL https://www.minorplanetcenter.net/    ISSN 1523-6714

                                    2019 SU3                                    


Observations:
     K19S03U* C2019 09 23.24963819 54 05.51 -37 15 42.9          17.75cVES098T05
     K19S03U  C2019 09 23.25262319 54 14.73 -37 14 42.8          17.67cVES098T05
     K19S03U  C2019 09 23.25997819 54 37.16 -37 12 12.4          18.09cVES098T05
     K19S03U  C2019 09 25.33307521 48 13.354-21 41 24.08         17.12GVES098F51
     K19S03U  C2019 09 25.35229421 48 53.802-21 31 46.32         17.13GVES098F51
     K19S03U  C2019 09 25.36188221 49 13.970-21 26 55.67         17.16GVES098F51
     K19S03U  C2019 09 25.37697921 49 44.48 -21 18 52.2          16.88oVES098T08
     K19S03U  C2019 09 25.38070021 49 52.31 -21 16 58.0          17.19oVES098T08
     K19S03U  C2019 09 25.38695121 50 05.47 -21 13 46.0          16.96oVES098T08
     K19S03U  C2019 09 25.39945621 50 31.95 -21 07 19.7          17.18oVES098T08
     K19S03U [C2019 09 25.55373 21 57 17.89 -19 32 05.0          17.2 GVES098Q62
     K19S03U [C2019 09 25.55584 21 57 22.33 -19 31 00.4          17.4 GVES098Q62
     K19S03U [C2019 09 25.55797 21 57 26.69 -19 29 55.3          17.3 GVES098Q62
     K19S03U  C2019 09 26.40438822 29 52.37 -13 10 33.0          16.95oVES098T08
     K19S03U  C2019 09 26.40766222 29 57.49 -13 09 04.1          16.98oVES098T08
     K19S03U  C2019 09 26.41320522 30 06.18 -13 06 33.2          17.03oVES098T08
     K19S03U  C2019 09 26.42536122 30 25.31 -13 01 02.5          17.12oVES098T08

Observer details:
F51 Pan-STARRS 1, Haleakala.  Observers J. Bulger, K. Chambers, T. Lowe, E. 
   Magnier, A. Schultz, M. Willman.  Measurers S. Chastel, M. Huber, Y. 
   Ramanjooloo, R. Wainscoat, R. Weryk.  1.8-m Ritchey-Chretien + CCD.
Q62 iTelescope Observatory, Siding Spring.  Observer M. Suzuki.  0.43-m f/6.8 
   reflector + CCD.
T05 ATLAS-HKO, Haleakala.  Observers L. Denneau, J. Tonry, A. Heinze, H. 
   Weiland, H. Flewelling.  Measurers L. Denneau, J. Tonry, A. Heinze, H. 
   Weiland, H. Flewelling, B. Stalder, A. Fitzsimmons, J. Robinson, D. Young, 
   N. Erasmus.  0.5-m reflector + CCD.
T08 ATLAS-MLO, Mauna Loa.  Observers L. Denneau, J. Tonry, A. Heinze, H. 
   Weiland, H. Flewelling.  Measurers L. Denneau, J. Tonry, A. Heinze, H. 
   Weiland, H. Flewelling, B. Stalder, A. Fitzsimmons, J. Robinson, D. Young, 
   N. Erasmus.  0.5-m reflector + CCD.

Orbital elements:
2019 SU3                                                 Earth MOID = 0.0022 AU
Epoch 2019 Apr. 27.0 TT = JDT 2458600.5                 Veres
M 257.61657              (2000.0)            P               Q
n   0.86196199     Peri.  322.69248     +0.84628798     +0.53272261
a   1.0934795      Node     5.11891     -0.48374733     +0.76989902
e   0.0926362      Incl.    1.16193     -0.22312592     +0.35137177
P   1.14           H   26.8           G   0.15           U   4
Residuals in seconds of arc
190923 T05  0.5-  0.5-    190925 T08  0.1+  0.1+    190925 Q62  0.2-  0.3+
190923 T05  0.5+  0.5+    190925 T08  0.0   0.1+    190926 T08  0.0   0.0
190923 T05 (0.4-  3.6+)   190925 T08  0.4-  0.2-    190926 T08  0.0   0.0
190925 F51  0.0   0.0     190925 T08  0.1-  0.2-    190926 T08  0.0   0.1+
190925 F51  0.0   0.0     190925 Q62  0.1-  0.3-    190926 T08  0.0   0.2-
190925 F51  0.1+  0.1+    190925 Q62  0.7+  0.1+

Ephemeris:
2019 SU3                 a,e,i = 1.09, 0.09, 1                   q = 0.9922
Date    TT    R. A. (2000) Decl.     Delta      r    Elong.  Phase     V
2019 08 27    13 46 43.3 -28 03 05   0.04075 0.9927    62.9   115.0    24.3
...
2019 09 11    14 35 27.2 -34 18 11   0.02001 0.9975    61.3   117.7    23.0
...
2019 09 19    16 24 39.8 -42 02 00   0.0096811.0026    76.7   102.7    20.5
...
2019 09 25    21 32 42.2 -24 11 24   0.0061911.0076   135.6    44.2    17.5
2019 09 26    22 15 42.2 -16 03 41   0.0066411.0085   147.4    32.4    17.3
2019 09 27    22 49 04.0 -08 50 33   0.0073641.0094   156.9    22.9    17.2
...
2019 10 03    00 22 35.3 +12 28 03   0.01444 1.0151   170.8     9.1    18.2
...
2019 10 11    00 59 49.2 +19 37 07   0.02609 1.0240   167.1    12.6    19.7
...
2019 10 26    01 21 52.3 +22 16 21   0.05113 1.0441   166.5    12.8    21.2

A. U. Tomatic                (C) Copyright 2019 MPC           M.P.E.C. 2019-S98




More information about the Iaude mailing list